Probability
0 0 0 0 0 0 0 0 0 0 0 0 0 0 0 0 0 0 0 0 0 0 0 0 0 0 0 0 0 0 0 0 0 0 0 0 0 0 0 0 0 0 0
0 0 0 0 0 0 0 0 0 0 0 0 0 0 0 0 0 0 0 0 0 0 0 0 0 0 0 0 0 0 0 0 0 0 0 0 0 0 0 0 0 0 0
0 0 0 0 0 0 0 0 0 0 0 0 0 0 0 0 0 0 0 0 0 0 0 0 0 0 0 0 0 0 0 0 0 0 0 0 0 0 0 0 0 0 0
0 0 0 0 0 0 0 0 0 0 0 0 0 0 0 0 0 0 0 0 0 0 0 0 0 0 1 0 0 0 0 0 0 0 0 0 0 0 0 0 0 0 0
0 0 0 0 0 0 0 0 0 0 0 0 0 0 0 0 0 0 0 0 0 0 0 0 0 0 0 0 0 0 0 0 0 0 0 0 0 0 0 0 0 0 0
0 0 0 0 0 0 0 0 0 0 0 0 0 0 0 0 0 0 0 0 0 0 0 0 0 0 0 0 0 0 0 0 0 0 0 0 0 0 0 0 0 0 0
0 0 0 0 0 0 0 0 0 0 0 0 0 0 0 0 0 0 0 0 0 0 0 0 0 0 0 0 0 0 0 0 0 0 0 0 0 0 0 0 0 0 0
0 0 0 0 0 0 0 0 0 0 0 0 0 0 0 0 0 0 0 0 0 0 0 0 0 0 0 0 0 0 0 1 1 1 0 0 0 0 0 0 0 0 0
0 0 0 0 0 0 0 0 0 0 0 0 0 0 0 0 0 0 0 0 0 0 0 0 0 0 0 0 0 1 0 1 1 1 0 0 0 0 0 0 0 0 0
0 0 0 0 0 0 0 0 0 0 0 0 0 0 0 0 0 0 0 0 0 0 0 0 0 0 0 0 0 0 0 0 1 1 0 0 0 0 0 0 0 0 0
0 0 0 0 0 0 0 0 0 0 0 0 0 0 0 0 0 0 0 0 0 0 0 0 0 0 0 0 0 0 0 0 1 2 1 1 1 1 1 1 0 0 0
0 0 0 0 0 0 0 0 0 0 0 0 0 0 0 0 0 0 0 0 0 0 0 0 0 0 0 0 0 0 0 0 1 1 1 3 3 3 3 2 1 0 0
0 0 0 0 0 0 0 0 0 0 0 0 0 0 0 0 0 0 0 0 0 0 0 0 0 0 0 0 0 0 0 0 0 0 1 2 3 5 5 4 1 0 0
0 0 0 0 0 0 0 0 0 0 0 0 0 0 0 0 0 0 0 0 0 0 0 0 0 0 0 0 0 0 0 0 0 0 0 0 1 3 6 6 4 2 1
0 0 0 0 0 0 0 0 0 0 0 0 0 0 0 0 0 0 0 0 0 0 0 0 0 0 0 0 0 0 0 0 0 0 0 0 0 1 5 6 5 3 2
0 0 0 0 0 0 0 0 0 0 0 0 0 0 0 0 0 0 0 0 0 0 0 0 0 0 0 0 0 0 0 0 0 0 0 0 0 0 2 3 3 2 1
0 0 0 0 0 0 0 0 0 0 0 0 0 0 0 0 0 0 0 0 0 0 0 0 0 0 0 0 0 0 0 0 0 0 0 0 0 0 0 1 1 0 0
0 0 0 0 0 0 0 0 0 0 0 0 0 0 0 0 0 0 0 0 0 0 0 0 0 0 0 0 0 0 0 0 0 0 0 0 0 0 0 0 0 0 0
0 0 0 0 0 0 0 0 0 0 0 0 0 0 0 0 0 0 0 0 0 0 0 0 0 0 0 0 0 0 0 0 0 0 0 0 0 0 0 0 0 0 0
0 0 0 0 0 0 0 0 0 0 0 0 0 0 0 0 0 0 0 0 0 0 0 0 0 0 0 0 0 0 0 0 0 0 0 0 0 0 0 0 0 0 0
0 0 0 0 0 0 0 0 0 0 0 0 0 0 0 0 0 0 0 0 0 0 0 0 0 0 0 0 0 0 0 0 0 0 0 0 0 0 0 0 0 0 0
0 0 0 0 0 0 0 0 0 0 0 0 0 0 0 0 0 0 0 0 0 0 0 0 0 0 0 0 0 0 0 0 0 0 0 0 0 0 0 0 0 0 0
0 0 0 0 0 0 0 0 0 0 0 0 0 0 0 0 0 0 0 0 0 0 0 0 0 0 0 0 0 0 0 0 0 0 0 0 0 0 0 0 0 0 0
0 0 0 0 0 0 0 0 0 0 0 0 0 0 0 0 0 0 0 0 0 0 0 0 0 0 0 0 0 0 0 0 0 0 0 0 0 0 0 0 0 0 0
0 0 0 0 0 0 0 0 0 0 0 0 0 0 0 0 0 0 0 0 0 0 0 0 0 0 0 0 0 0 0 0 0 0 0 0 0 0 0 0 0 0 0
0 0 0 0 0 0 0 0 0 0 0 0 0 0 0 0 0 0 0 0 0 0 0 0 0 0 0 0 0 0 0 0 0 0 0 0 0 0 0 0 0 0 0
Wind_Speed
2 2 2 2 2 1 1 2 1 2 2 2 3 3 3 4 3 3 3 7 7 8 9 9 10 11 11 10 10 9 10 10 10 10 10 10 10 10 10 10 10 10 9
2 2 2 2 2 2 2 2 2 1 2 2 3 3 3 3 3 3 3 4 7 7 8 9 10 11 11 11 11 10 10 10 10 10 10 10 11 11 11 10 10 10 9
2 2 2 2 2 2 2 1 2 1 1 2 2 3 3 4 3 4 3 2 3 5 7 9 10 11 12 12 11 11 11 10 11 11 11 11 11 11 11 11 10 10 9
3 2 2 2 3 2 1 1 1 1 1 2 2 3 3 3 4 4 3 3 2 2 4 7 9 10 11 12 12 11 11 11 10 11 10 10 11 11 11 11 10 10 9
3 2 2 2 3 2 1 1 0 1 1 2 2 3 3 3 3 3 3 3 3 2 2 4 7 9 10 11 12 12 12 13 12 12 11 11 11 11 11 10 10 10 9
4 3 2 3 3 2 2 1 1 1 1 2 2 2 2 3 3 3 3 3 3 3 3 3 3 5 10 10 11 12 13 13 13 13 13 12 12 11 11 11 11 10 10
4 3 2 3 3 2 2 2 1 1 1 1 0 1 1 2 3 3 3 2 3 3 3 3 3 3 4 9 11 12 13 14 14 14 14 14 13 12 12 12 12 11 10
4 3 3 2 2 2 3 2 1 1 1 0 1 0 1 2 1 2 2 3 3 2 3 4 4 4 4 3 6 11 12 12 14 15 15 14 14 13 13 13 13 12 11
4 3 3 2 3 2 2 2 1 0 1 1 0 1 1 1 1 1 1 1 2 2 2 3 4 5 5 4 5 9 12 12 14 16 16 15 15 14 14 14 13 13 12
4 3 3 3 2 2 2 2 1 0 0 1 1 1 1 1 1 1 2 1 1 2 3 3 4 5 5 5 6 9 12 13 14 16 17 16 16 16 15 14 14 13 13
4 4 3 3 3 2 2 2 2 1 0 1 1 0 0 0 0 1 1 2 1 1 2 3 3 4 5 5 5 8 11 13 14 15 17 17 17 17 17 16 15 15 14
3 4 4 3 2 2 2 2 2 1 1 0 1 1 1 1 1 1 1 1 2 2 2 2 3 3 3 4 7 9 11 12 13 14 15 15 16 18 18 18 18 17 16
3 4 4 3 2 2 2 2 1 2 1 1 1 1 1 1 1 1 1 1 1 2 2 2 2 2 3 3 4 8 9 12 13 14 14 14 15 16 18 19 19 19 18
3 4 3 3 3 3 2 2 1 2 1 1 1 1 1 2 1 2 2 1 1 1 2 3 2 2 2 2 4 6 5 10 12 13 14 14 14 15 16 17 18 18 18
3 3 3 3 3 3 2 2 1 2 2 2 2 1 1 1 1 2 2 2 2 2 2 3 2 2 2 2 4 4 5 8 11 13 14 14 14 15 16 16 17 17 16
2 3 3 3 3 3 3 2 1 2 2 2 2 2 2 2 2 2 2 2 3 3 3 2 2 2 2 3 4 4 5 9 11 12 13 14 15 15 15 16 16 16 16
2 2 3 3 3 3 3 2 2 2 2 2 2 2 3 3 2 2 1 2 2 3 4 3 2 2 2 3 3 3 4 5 5 11 13 14 15 15 15 16 16 16 16
2 2 2 3 3 3 3 2 3 3 2 3 3 3 3 3 2 2 2 2 3 3 4 4 3 2 3 4 4 4 4 4 4 8 11 13 14 14 15 15 16 16 16
3 2 2 3 3 3 3 3 2 3 3 3 3 3 3 3 3 2 2 3 3 3 3 3 3 2 2 2 3 3 3 3 4 6 9 11 12 13 15 15 16 16 16
3 3 3 3 3 3 3 3 2 2 3 3 3 3 4 3 4 4 3 3 3 3 3 3 4 3 3 2 2 3 3 3 3 4 5 6 9 12 14 15 16 16 16
3 3 3 4 4 3 3 3 3 3 3 3 4 4 4 5 6 4 3 3 3 3 3 3 4 3 3 2 3 2 3 3 4 3 3 4 5 5 7 11 14 15 16
4 3 4 4 4 4 7 7 4 2 3 3 4 4 4 5 6 6 6 6 5 4 4 4 4 4 5 4 3 3 3 3 3 2 3 4 4 5 5 6 10 14 15
4 4 4 4 5 7 10 8 6 3 3 3 3 4 4 4 5 4 6 7 6 7 7 5 6 6 5 4 4 4 4 4 5 3 3 4 4 6 5 6 12 14 15
4 4 5 5 5 7 10 8 7 3 3 3 4 4 4 4 4 4 3 4 5 5 6 5 6 6 6 5 5 6 5 5 4 3 3 4 3 4 4 5 10 13 14
5 5 5 5 6 8 10 9 6 2 3 4 4 4 4 4 8 7 4 5 6 5 6 7 9 9 11 11 8 4 4 4 4 3 4 4 3 2 3 4 7 11 13
5 4 5 5 6 7 10 10 7 2 3 4 3 3 5 6 8 7 4 4 6 6 5 6 6 7 7 7 8 6 5 5 4 3 4 4 3 2 3 3 3 5 7
Wind_Direction
322 321 311 309 306 297 286 283 262 223 211 214 229 223 229 234 231 230 244 249 246 240 232 220 210 204 200 195 195 189 180 177 173 169 167 163 158 154 151 147 146 144 142
328 325 321 321 311 304 286 275 275 247 221 207 227 227 230 234 232 231 232 249 250 240 229 222 218 210 203 198 197 192 186 182 177 174 172 167 162 157 156 154 152 151 147
340 336 328 324 312 307 298 287 280 246 233 227 228 230 223 225 229 234 235 235 244 235 222 217 220 216 208 203 200 196 189 185 183 178 174 169 165 162 164 161 160 156 154
353 349 344 327 319 316 308 288 269 249 235 227 231 233 226 223 232 233 229 227 229 230 220 216 215 216 212 207 203 199 193 190 187 182 178 172 169 169 169 169 166 164 164
357 0 348 330 332 332 325 310 275 224 238 239 234 228 224 226 227 234 228 226 223 215 209 218 218 214 211 210 207 202 199 194 192 188 183 177 175 175 175 175 174 172 170
352 355 348 346 348 350 340 333 308 268 242 250 258 252 228 228 223 224 229 223 217 214 205 204 211 219 214 210 208 206 203 199 197 194 190 186 184 183 182 183 183 180 178
350 352 354 354 357 358 338 328 315 314 291 258 284 310 296 239 231 228 222 218 218 216 201 200 195 202 214 213 209 209 207 205 203 200 196 193 191 191 191 191 191 189 186
349 356 2 351 349 350 357 358 355 347 316 343 135 100 325 331 284 238 220 217 219 210 214 215 202 203 204 196 208 211 210 210 209 206 201 198 196 196 197 198 197 195 193
347 354 358 352 347 351 342 336 340 16 317 313 230 159 161 237 305 317 255 232 210 200 212 214 213 212 207 202 202 214 212 210 212 212 207 204 201 200 201 202 202 200 198
348 356 359 356 349 347 338 324 8 333 238 296 312 288 219 183 184 334 332 311 257 223 216 220 219 215 209 205 207 208 211 210 214 216 214 210 207 206 205 206 205 205 202
346 354 354 355 351 346 340 340 352 6 288 227 246 286 291 342 187 189 286 313 315 272 240 230 219 218 210 209 210 210 210 211 215 219 218 216 212 210 209 209 209 208 208
332 345 348 349 345 346 338 333 342 359 358 273 243 222 204 188 186 193 228 266 280 280 265 245 228 222 213 211 221 221 214 213 215 218 220 220 217 214 213 212 212 212 213
320 325 340 336 336 334 335 343 358 350 344 334 282 243 235 233 209 189 198 234 267 291 294 272 241 220 216 208 222 227 224 218 217 218 218 219 220 217 216 215 215 215 215
284 305 325 331 333 338 352 1 356 334 340 327 318 292 264 259 230 208 195 182 242 281 283 272 276 232 224 215 229 227 234 226 221 220 220 219 220 220 218 217 218 217 218
287 311 327 338 339 344 353 360 345 329 328 319 310 309 291 276 261 235 219 201 192 232 262 261 265 269 248 234 231 227 230 233 228 225 223 221 222 221 220 219 217 216 216
303 320 332 337 341 349 352 356 334 328 337 321 306 317 310 290 285 258 234 225 211 208 241 254 250 267 265 260 237 233 235 239 234 228 225 223 222 222 220 219 217 214 213
299 310 319 326 333 336 338 340 328 334 339 329 328 320 310 301 291 283 260 237 229 219 243 261 249 258 260 261 263 246 242 235 237 232 229 226 224 222 220 218 215 213 211
288 291 306 316 318 321 325 325 321 332 331 322 319 320 311 313 300 286 271 255 243 230 232 256 261 255 251 255 255 254 250 241 235 237 232 230 227 223 220 218 215 213 210
286 295 296 298 302 306 309 304 296 301 303 299 299 298 297 301 291 282 274 265 258 250 232 243 259 248 254 252 256 257 249 247 245 240 234 231 230 227 222 218 215 213 210
276 285 287 286 287 289 289 288 286 291 296 295 290 283 282 274 269 272 272 266 257 253 243 244 255 255 251 251 239 249 258 242 250 248 239 233 230 228 223 218 215 213 211
267 272 284 293 292 284 273 270 267 271 282 295 297 290 283 284 277 267 260 258 253 250 251 247 251 255 254 244 242 237 251 262 255 233 235 231 225 226 219 219 217 215 212
270 272 274 281 289 283 293 293 276 255 269 280 290 296 296 297 309 311 308 295 274 258 253 251 253 251 255 245 242 242 245 252 261 228 219 236 212 227 222 215 213 212 213
262 268 269 270 276 280 289 295 289 260 258 267 273 287 300 304 314 300 303 308 301 289 271 256 256 255 252 239 236 244 238 240 245 231 215 241 217 231 224 221 213 210 211
254 260 266 268 272 278 286 286 285 270 260 267 265 267 275 292 295 292 287 294 288 282 273 263 251 255 251 246 235 242 250 255 260 241 208 238 223 229 227 221 216 212 210
253 252 256 263 266 277 285 284 276 246 260 272 271 265 263 277 295 302 294 292 293 287 276 270 268 269 268 261 247 241 239 241 255 239 203 220 224 228 230 227 219 214 214
253 263 265 259 255 267 281 283 274 222 253 271 281 275 271 275 291 301 283 282 291 290 293 298 293 286 276 268 255 235 233 239 243 244 208 203 212 199 247 235 218 213 217